Flag for Germany Weather past 2 weeks in Ibbenbüren, North Rhine-Westphalia, Germany

Now
43 °F

Partly sunny.


Feels Like: 36 °F
Forecast: 33 / 38 °F
Wind: 14 mph from West

Location: Muenster / Osnabrueck

Current Time: Dec 25, 2014 at 11:48:52 AM

Latest Report: Dec 25, 2014 at 11:20 AM


Visibility: N/A

Pressure: 30.12 "Hg

Humidity: 87%

Dew point: 39 °F

Location of IbbenbürenLocation

Historic Weather in Ibbenbüren — Graph

°F

Ibbenbüren temperature yesterday

Maximum temperature yesterday: 50 °F (at 12:20 AM)
Minimum temperature yesterday: 39 °F (at 9:20 PM)
Average temperature yesterday: 46 °F

Past Weeks' High & Low Weather Summary

 TemperatureHumidityPressure
High55 °F (Dec 18, 6:20 PM)100% (Dec 14, 1:20 AM)30.33 "Hg (Dec 14, 1:20 AM)
Low34 °F (Dec 14, 1:20 AM)70% (Dec 15, 6:20 AM)29.33 "Hg (Dec 12, 12:50 PM)
Average44 °F88%29.87 "Hg
* Reported Dec 10 10:20 AM — Dec 25 10:50 AM, Ibbenbüren, Weather by CustomWeather, © 2014

Note: Actual official high and low records may vary slightly from our data, if they occured in-between our weather recording intervals... More about our weather records

Advertising

Ibbenbüren weather history for previous 24 hours

 ConditionsComfort  
Time TempWeatherWind HumidityBarometerVisibility
10:50 AM
Dec 25
43 °FPartly sunny.14 mph87%30.12 "HgN/A
10:20 AM41 °FPartly sunny.10 mph93%30.12 "HgN/A
9:50 AM41 °FPartly sunny.14 mph93%30.09 "HgN/A
9:20 AM41 °FLight rain. Broken clouds.12 mph93%30.09 "Hg5 mi
8:50 AM43 °FLight rain. Partly sunny.16 mph81%30.07 "HgN/A
8:20 AM43 °FLight rain. Passing clouds.15 mph81%30.07 "HgN/A
7:50 AM43 °FPartly cloudy.13 mph81%30.07 "HgN/A
7:20 AM41 °FPartly cloudy.14 mph87%30.04 "HgN/A
6:50 AM41 °FPartly cloudy.16 mph87%30.07 "HgN/A
6:20 AM41 °FPartly cloudy.14 mph87%30.04 "HgN/A
5:50 AM41 °FPartly cloudy.15 mph87%30.04 "HgN/A
5:20 AM41 °FPassing clouds.13 mph81%30.04 "HgN/A
4:50 AM41 °FPassing clouds.14 mph81%30.07 "HgN/A
4:20 AM41 °FPassing clouds.15 mph81%30.04 "HgN/A
3:50 AM41 °FPassing clouds.14 mph81%30.07 "HgN/A
3:20 AM41 °FPassing clouds.15 mph81%30.04 "HgN/A
2:50 AM41 °FPassing clouds.13 mph81%30.04 "HgN/A
2:20 AM41 °FPassing clouds.14 mph81%30.04 "HgN/A
1:50 AM41 °FClear.16 mph81%30.04 "Hg10 mi
1:20 AM41 °FPassing clouds.13 mph81%30.07 "HgN/A
12:50 AM41 °FPassing clouds.12 mph81%30.04 "HgN/A
12:20 AM41 °FClear.12 mph81%30.04 "Hg10 mi
11:50 PM
Dec 24
41 °FClear.10 mph81%30.04 "Hg10 mi
11:20 PM41 °FPassing clouds.9 mph81%30.04 "HgN/A
10:50 PM41 °FPassing clouds.12 mph81%30.04 "HgN/A
10:20 PM41 °FClear.12 mph81%30.01 "Hg10 mi
9:50 PM41 °FClear.10 mph81%30.01 "Hg10 mi
9:20 PM39 °FClear.9 mph87%30.01 "Hg10 mi
8:50 PM41 °FClear.10 mph81%30.01 "Hg10 mi
8:20 PM41 °FPassing clouds.12 mph81%30.01 "HgN/A
7:50 PM43 °FPassing clouds.10 mph81%29.98 "HgN/A
7:20 PM43 °FPassing clouds.10 mph87%29.98 "HgN/A
6:50 PM45 °FPassing clouds.10 mph93%29.95 "HgN/A
6:20 PM45 °FPassing clouds.9 mph93%29.95 "HgN/A
5:50 PM45 °FPassing clouds.9 mph93%29.95 "HgN/A
5:20 PM45 °FPassing clouds.9 mph93%29.95 "HgN/A
4:50 PM45 °FPassing clouds.10 mph93%29.92 "HgN/A
4:20 PM45 °FLight rain. Passing clouds.10 mph93%29.92 "HgN/A
3:20 PM45 °FLight rain. Partly sunny.14 mph93%29.89 "HgN/A
2:50 PM46 °FLight rain. Partly sunny.13 mph93%29.89 "HgN/A
2:20 PM46 °FDrizzle. Partly sunny.13 mph100%29.89 "Hg4 mi
1:50 PM48 °FDrizzle. Partly sunny.15 mph94%29.86 "Hg5 mi
1:20 PM48 °FDrizzle. Partly sunny.17 mph94%29.86 "Hg5 mi
12:50 PM48 °FDrizzle. Partly sunny.17 mph94%29.86 "Hg5 mi
12:20 PM48 °FDrizzle. Broken clouds.18 mph94%29.86 "Hg6 mi
11:50 AM46 °FDrizzle. Broken clouds.18 mph100%29.86 "Hg5 mi
11:20 AM46 °FDrizzle. Broken clouds.21 mph93%29.86 "Hg4 mi
Weather by CustomWeather, © 2014

See weather overviewHow to use our weather pages